Regional Weather Roundup
Issued by NWS

Home | Current Version | Previous Version | Text Only | Print | Product List | Glossary Off
Versions: 1 2 3 4 5 6 7 8 9 10 11 12 13 14 15 16 17 18 19 20 21 22 23 24 25 26 27 28 29 30 31 32 33 34 35 36 37 38 39 40 41 42 43 44 45 46 47 48 49 50

000
ASUS45 KCYS 241810
RWRWY

WYOMING REGIONAL WEATHER ROUNDUP
NATIONAL WEATHER SERVICE CHEYENNE WY
1200 PM MDT MON APR 24 2017

NOTE:  "FAIR" INDICATES FEW OR NO CLOUDS BELOW 12,000 FEET
WITH NO SIGNIFICANT WEATHER AND/OR OBSTRUCTIONS TO VISIBILITY.

WYZ001-241900-
YELLOWSTONE NATIONAL PARK

CITY           SKY/WX    TMP DP  RH WIND       PRES   REMARKS
LK YELLOWSTONE   N/A     33  32  96 VRB3      29.68F
6HR MIN TEMP:  26; 6HR MAX TEMP:  33; 6HR PCP:  0.08;

W YELLOWSTONE  NOT AVBL

$$
WYZ002>013-054>058-071-098>099-241900-
NORTHERN WYOMING

CITY           SKY/WX    TMP DP  RH WIND       PRES   REMARKS
JACKSON        CLOUDY    39  37  93 W10       29.67F WCI  32
CODY           FAIR      54  31  41 CALM      29.61F
GREYBULL       FAIR      57  33  40 MISG      29.59F
6HR MIN TEMP:  40; 6HR MAX TEMP:  58;

WORLAND        FAIR      57  35  43 VRB3      29.58F
6HR MIN TEMP:  40; 6HR MAX TEMP:  57;

SHERIDAN       PTSUNNY   57  35  43 CALM      29.62S
6HR MIN TEMP:  35; 6HR MAX TEMP:  59;

BUFFALO        PTSUNNY   54  34  46 E6        29.64S
6HR MIN TEMP:  39; 6HR MAX TEMP:  54;

GILLETTE         N/A     54  38  54 MISG      29.62F
6HR MIN TEMP:  36; 6HR MAX TEMP:  55;

HULETT         MOCLDY    50  39  66 N5        29.66F
NEWCASTLE      FAIR      54  32  43 NW16G24   29.65F

$$
WYZ014>020-022>026-101>103-241900-
CENTRAL WYOMING

CITY           SKY/WX    TMP DP  RH WIND       PRES   REMARKS
BIG PINEY      LGT RAIN  39  34  82 SW16      29.73S WCI  30
6HR MIN TEMP:  29; 6HR MAX TEMP:  41; 6HR PCP: TRACE;

PINEDALE       RAIN      39  32  75 SE6       29.73F WCI  35
DUBOIS         LGT SNOW  36  32  87 W24G45    29.67R WCI  24
LANDER         FAIR      54  29  38 N6        29.60F
6HR MIN TEMP:  38; 6HR MAX TEMP:  57;

RIVERTON       CLOUDY    55  28  35 W7        29.61F
6HR MIN TEMP:  38; 6HR MAX TEMP:  55;

CASPER         FAIR      59  30  33 W13G26    29.63F
6HR MIN TEMP:  32; 6HR MAX TEMP:  59;

DOUGLAS        FAIR      61  29  29 NW14G24   29.65F
6HR MIN TEMP:  36; 6HR MAX TEMP:  61;


$$
WYZ021-027>030-104>119-241900-
SOUTHERN WYOMING

CITY           SKY/WX    TMP DP  RH WIND       PRES   REMARKS
EVANSTON       LGT RAIN  39  36  89 SW16      29.72S WCI  30
6HR MIN TEMP:  34; 6HR MAX TEMP:  47; 6HR PCP: TRACE;

KEMMERER       LGT RAIN  37  34  87 S3        29.72F
FORT BRIDGER   CLOUDY    46  36  66 W12       29.74
ROCK SPRINGS   CLOUDY    50  26  39 SW23G30   29.71F
6HR MIN TEMP:  35; 6HR MAX TEMP:  50;

DIXON            N/A     53  29  38 S14G24    29.76F
RAWLINS        FAIR      53  28  38 W20G25    29.71F
6HR MIN TEMP:  37; 6HR MAX TEMP:  53;

SARATOGA       FAIR      54  27  35 W15       29.73F
LARAMIE        FAIR      52  21  29 W16       29.71F
6HR MIN TEMP:  33; 6HR MAX TEMP:  53;

CHEYENNE       FAIR      58  20  22 NW18G32   29.69F
6HR MIN TEMP:  41; 6HR MAX TEMP:  58;

TORRINGTON     FAIR      61  33  35 NW10      29.64F
6HR MIN TEMP:  48; 6HR MAX TEMP:  62;

PINE BLUFFS    FAIR      61  23  23 NW16G29   29.68F

$$



USA.gov is the U.S. government's official web portal to all federal, state and local government web resources and services.